Temp
-3 -3 -3 -3 -2 -1 0 -0 -3 -1 0 -2 -5 -4 -3 -1 -1 -0 -1 -1 -1 -2 -2 -2 -1 -2 -2 -0 -0 -1 0 -2 -3 -3 -2 -2 -2 -2 -2 -0 1 -0 0 2
-3 -3 -3 -3 -2 -2 -2 -3 -2 -1 -1 -4 -4 -4 -2 -2 -2 -2 -1 -1 -1 -3 -3 -3 -2 -2 -0 -1 -1 -1 -0 -3 -3 -1 -1 -2 -3 -3 -3 -3 -2 -1 0 0
-3 -3 -4 -3 -2 -2 -2 -2 -5 -3 -3 -4 -6 -4 -3 -3 -2 -2 -2 -2 -2 -3 -3 -2 -4 -3 -1 -2 -1 1 -1 -2 -2 -3 -2 -1 -2 -1 -1 -3 -3 -3 -3 -2
-3 -3 -3 -3 -2 -2 -2 -3 -6 -5 -5 -4 -6 -6 -5 -4 -4 -3 -2 -2 -3 -3 -6 -4 -4 -3 -3 -2 -2 -2 -4 -6 -4 -3 -2 -2 -2 -4 -3 -2 -2 -3 -3 -2
-3 -4 -3 -3 -3 -2 -3 -5 -5 -5 -5 -5 -6 -7 -5 -4 -4 -4 -4 -4 -4 -4 -5 -4 -6 -4 -4 -4 -4 -4 -5 -8 -4 -5 -3 -3 -4 -7 -5 -5 -3 -2 -4 -2
-3 -3 -3 -3 -3 -3 -4 -5 -5 -5 -5 -6 -8 -5 -5 -4 -4 -4 -3 -4 -5 -4 -4 -4 -5 -4 -5 -6 -5 -5 -6 -8 -6 -7 -3 -3 -7 -9 -7 -6 -6 -6 -6 -8
-3 -4 -4 -4 -4 -4 -4 -5 -5 -5 -7 -6 -5 -5 -5 -5 -5 -5 -4 -4 -5 -4 -4 -4 -6 -5 -6 -5 -5 -6 -5 -5 -4 -7 -4 -8 -9 -8 -8 -8 -6 -7 -8 -8
-4 -4 -4 -4 -4 -4 -4 -5 -4 -5 -6 -5 -4 -5 -6 -6 -6 -6 -6 -5 -5 -4 -4 -7 -6 -5 -5 -6 -6 -7 -8 -8 -7 -5 -6 -8 -8 -9 -10 -10 -9 -8 -10 -9
-4 -4 -4 -4 -4 -4 -4 -5 -5 -5 -6 -7 -7 -7 -7 -7 -8 -7 -6 -6 -5 -4 -4 -7 -7 -6 -6 -8 -8 -6 -7 -11 -12 -10 -9 -7 -10 -9 -9 -9 -9 -9 -10 -10
-4 -4 -4 -4 -3 -3 -4 -5 -6 -5 -7 -7 -7 -8 -8 -8 -8 -12 -8 -7 -6 -5 -8 -6 -7 -8 -8 -11 -10 -10 -10 -11 -11 -9 -9 -9 -10 -10 -8 -10 -10 -10 -10 -10
-4 -4 -3 -3 -3 -4 -4 -6 -6 -5 -7 -7 -7 -7 -8 -9 -8 -9 -7 -8 -8 -8 -7 -7 -8 -9 -10 -11 -11 -11 -11 -13 -10 -9 -10 -11 -10 -10 -11 -11 -11 -11 -11 -11
-5 -3 -2 -3 -3 -4 -4 -5 -6 -5 -6 -7 -7 -7 -8 -9 -9 -9 -8 -8 -8 -8 -7 -9 -9 -9 -11 -13 -12 -10 -11 -11 -11 -11 -10 -10 -11 -11 -11 -12 -12 -11 -11 -11
-2 -2 -2 -3 -3 -4 -4 -5 -5 -5 -6 -6 -7 -7 -7 -7 -7 -7 -8 -7 -7 -7 -7 -8 -12 -11 -9 -13 -12 -12 -11 -11 -12 -12 -11 -11 -12 -12 -12 -12 -12 -12 -12 -11
-2 -2 -2 -2 -3 -4 -4 -4 -6 -6 -6 -7 -6 -7 -7 -7 -6 -7 -6 -7 -7 -6 -6 -8 -13 -11 -9 -13 -13 -12 -12 -12 -12 -12 -11 -12 -11 -12 -13 -13 -12 -12 -12 -12
-2 -2 -2 -2 -3 -4 -5 -5 -5 -5 -5 -7 -6 -6 -7 -7 -6 -7 -7 -6 -7 -7 -8 -12 -14 -9 -11 -12 -12 -13 -13 -13 -13 -13 -12 -13 -13 -13 -13 -13 -13 -12 -12 -12
-2 -2 -2 -2 -2 -3 -4 -4 -5 -5 -5 -5 -9 -6 -6 -6 -7 -7 -7 -7 -7 -8 -8 -10 -9 -9 -10 -13 -13 -12 -13 -13 -13 -13 -13 -13 -13 -14 -14 -13 -13 -12 -12 -12
-2 -3 -3 -3 -3 -3 -4 -5 -5 -5 -5 -5 -8 -7 -6 -6 -6 -6 -6 -7 -7 -7 -8 -9 -10 -10 -10 -15 -14 -12 -13 -13 -13 -14 -14 -13 -14 -14 -14 -13 -13 -13 -12 -12
-2 -3 -3 -3 -3 -4 -4 -5 -5 -5 -5 -6 -14 -11 -7 -7 -7 -6 -6 -6 -7 -8 -8 -9 -10 -10 -11 -14 -12 -13 -13 -13 -13 -13 -14 -14 -14 -13 -13 -13 -13 -13 -13 -13
-3 -3 -3 -3 -3 -4 -5 -5 -5 -5 -5 -8 -9 -13 -12 -8 -8 -8 -7 -6 -12 -8 -9 -10 -10 -15 -15 -13 -13 -13 -13 -14 -14 -13 -13 -14 -14 -14 -14 -14 -14 -14 -14 -13
-3 -3 -3 -4 -4 -5 -5 -5 -5 -6 -8 -8 -10 -10 -14 -10 -9 -8 -8 -7 -14 -16 -13 -9 -15 -17 -12 -12 -13 -13 -13 -13 -14 -14 -14 -14 -14 -15 -15 -15 -15 -15 -14 -14
-3 -3 -4 -4 -4 -4 -5 -7 -8 -9 -12 -10 -11 -11 -12 -10 -12 -11 -9 -13 -13 -16 -12 -14 -16 -17 -12 -12 -12 -13 -13 -13 -14 -14 -14 -14 -15 -15 -15 -15 -15 -15 -15 -15
-3 -3 -4 -4 -4 -5 -8 -18 -11 -13 -14 -11 -11 -12 -11 -10 -10 -9 -11 -16 -16 -13 -13 -16 -17 -18 -12 -12 -12 -12 -13 -13 -13 -14 -14 -15 -15 -15 -15 -15 -15 -15 -15 -15
-3 -3 -4 -6 -8 -12 -16 -17 -15 -16 -11 -11 -12 -12 -11 -10 -10 -11 -14 -17 -17 -14 -19 -18 -18 -12 -12 -12 -12 -12 -13 -13 -14 -14 -14 -14 -15 -15 -15 -15 -15 -15 -15 -15
-4 -5 -13 -15 -17 -16 -16 -16 -14 -10 -11 -11 -12 -12 -12 -11 -11 -14 -15 -16 -16 -20 -19 -17 -17 -12 -12 -12 -13 -13 -13 -13 -14 -14 -14 -14 -15 -15 -15 -16 -16 -16 -16 -16
-6 -6 -15 -15 -10 -10 -10 -10 -11 -11 -11 -12 -12 -12 -12 -13 -16 -14 -18 -17 -19 -17 -17 -19 -11 -12 -12 -12 -12 -13 -13 -13 -13 -14 -14 -14 -15 -15 -15 -16 -16 -16 -16 -16
-7 -8 -12 -10 -10 -9 -10 -10 -10 -11 -11 -12 -12 -14 -18 -17 -17 -16 -19 -18 -18 -17 -15 -11 -12 -12 -12 -12 -12 -13 -13 -13 -14 -14 -14 -14 -14 -15 -15 -16 -16 -16 -16 -16
-7 -9 -9 -9 -9 -9 -10 -10 -10 -10 -11 -12 -13 -16 -16 -16 -20 -17 -17 -18 -18 -10 -11 -11 -12 -12 -12 -12 -12 -13 -13 -13 -13 -14 -14 -14 -15 -15 -15 -15 -15 -16 -16 -17
Height
1525 1519 1513 1508 1502 1495 1487 1482 1481 1476 1468 1466 1473 1477 1476 1473 1469 1466 1465 1464 1462 1463 1461 1460 1455 1459 1459 1455 1452 1451 1448 1453 1454 1454 1449 1449 1448 1454 1454 1443 1438 1447 1446 1445
1526 1520 1515 1509 1503 1496 1490 1487 1486 1483 1475 1482 1483 1480 1478 1475 1473 1471 1470 1467 1467 1467 1467 1466 1461 1459 1457 1456 1454 1454 1450 1457 1458 1449 1449 1453 1454 1460 1461 1465 1458 1455 1448 1450
1527 1522 1516 1512 1506 1500 1494 1491 1491 1488 1487 1490 1489 1485 1483 1479 1475 1473 1472 1471 1469 1469 1468 1465 1468 1462 1457 1458 1456 1452 1451 1455 1456 1461 1458 1455 1456 1457 1460 1467 1465 1468 1468 1457
1528 1524 1518 1513 1508 1503 1498 1497 1501 1501 1498 1493 1493 1489 1489 1485 1481 1477 1475 1473 1473 1472 1476 1469 1467 1463 1460 1458 1457 1456 1457 1468 1462 1458 1456 1457 1460 1470 1467 1464 1466 1470 1463 1457
1529 1524 1521 1514 1509 1504 1501 1503 1504 1502 1501 1498 1496 1495 1493 1489 1485 1483 1479 1478 1474 1472 1473 1471 1472 1469 1466 1465 1461 1461 1462 1475 1464 1466 1459 1461 1469 1480 1474 1472 1467 1465 1472 1460
1530 1526 1521 1516 1511 1506 1505 1506 1506 1505 1505 1502 1501 1500 1497 1493 1490 1482 1480 1479 1476 1473 1471 1471 1468 1468 1469 1469 1468 1467 1468 1473 1471 1479 1461 1463 1484 1496 1487 1481 1479 1477 1469 1477
1531 1526 1522 1517 1513 1509 1508 1507 1507 1506 1509 1505 1504 1502 1500 1495 1491 1489 1480 1478 1477 1473 1469 1469 1470 1470 1472 1473 1474 1473 1470 1470 1466 1477 1462 1493 1497 1496 1494 1492 1480 1479 1482 1483
1531 1527 1522 1519 1516 1512 1509 1508 1508 1508 1510 1509 1504 1503 1500 1494 1491 1487 1483 1480 1478 1471 1468 1473 1473 1472 1474 1479 1480 1480 1479 1476 1473 1465 1477 1496 1495 1499 1499 1497 1486 1485 1486 1480
1532 1528 1524 1520 1517 1514 1511 1510 1509 1510 1511 1516 1511 1505 1503 1499 1494 1487 1483 1479 1474 1471 1469 1473 1483 1483 1483 1488 1488 1485 1485 1486 1492 1489 1494 1489 1515 1506 1497 1492 1486 1482 1482 1475
1532 1529 1525 1522 1519 1517 1514 1512 1510 1512 1514 1517 1513 1511 1508 1504 1499 1497 1488 1483 1476 1474 1476 1479 1487 1497 1498 1513 1510 1505 1500 1499 1502 1495 1498 1502 1512 1503 1491 1497 1496 1486 1485 1476
1533 1530 1526 1523 1522 1519 1516 1514 1513 1514 1516 1518 1515 1513 1508 1503 1501 1498 1491 1487 1485 1483 1484 1487 1496 1504 1511 1518 1519 1517 1515 1521 1509 1503 1506 1518 1511 1506 1510 1511 1499 1491 1483 1474
1533 1531 1528 1526 1525 1522 1519 1516 1517 1517 1517 1522 1518 1514 1509 1502 1497 1496 1495 1495 1493 1491 1490 1497 1502 1509 1517 1526 1525 1519 1522 1524 1521 1521 1519 1520 1517 1515 1512 1506 1497 1488 1479 1469
1533 1532 1530 1528 1526 1524 1522 1520 1519 1519 1519 1520 1516 1511 1509 1502 1496 1496 1498 1496 1495 1493 1494 1498 1509 1520 1519 1531 1530 1529 1526 1524 1524 1523 1520 1519 1516 1513 1508 1501 1493 1485 1477 1466
1533 1532 1531 1529 1527 1526 1525 1523 1521 1522 1522 1524 1527 1522 1513 1511 1504 1502 1500 1499 1498 1497 1498 1502 1513 1521 1526 1534 1537 1534 1537 1532 1529 1525 1521 1515 1513 1511 1506 1498 1490 1481 1472 1464
1533 1532 1532 1530 1528 1527 1526 1526 1524 1523 1525 1528 1528 1526 1523 1518 1513 1509 1506 1504 1503 1503 1505 1514 1523 1524 1529 1532 1535 1539 1540 1538 1536 1533 1528 1526 1518 1513 1506 1497 1490 1482 1473 1462
1533 1532 1532 1532 1529 1528 1527 1527 1527 1526 1526 1526 1530 1530 1528 1525 1522 1518 1516 1513 1512 1511 1514 1520 1526 1527 1529 1539 1542 1545 1542 1540 1538 1535 1528 1523 1519 1514 1507 1498 1491 1484 1476 1468
1533 1533 1533 1533 1531 1531 1530 1534 1530 1527 1527 1528 1532 1532 1531 1529 1527 1526 1525 1523 1522 1522 1524 1529 1531 1531 1532 1542 1549 1545 1541 1537 1535 1533 1527 1521 1516 1511 1506 1499 1493 1486 1480 1471
1533 1534 1534 1534 1534 1533 1534 1532 1530 1529 1528 1530 1537 1539 1535 1533 1531 1529 1529 1528 1528 1530 1532 1535 1536 1536 1539 1548 1547 1544 1541 1536 1532 1529 1526 1523 1517 1510 1503 1499 1492 1485 1480 1475
1534 1535 1535 1536 1535 1535 1536 1535 1534 1532 1534 1537 1544 1548 1546 1538 1536 1533 1532 1531 1534 1535 1537 1538 1540 1546 1552 1549 1546 1544 1540 1538 1533 1527 1523 1518 1513 1508 1503 1498 1491 1487 1482 1477
1536 1536 1536 1536 1537 1536 1536 1536 1535 1535 1540 1544 1549 1548 1546 1544 1538 1536 1535 1533 1537 1547 1542 1540 1545 1552 1548 1547 1545 1542 1540 1536 1532 1525 1518 1514 1510 1507 1503 1499 1496 1492 1485 1479
1537 1537 1538 1538 1537 1537 1536 1538 1541 1546 1550 1551 1551 1550 1548 1545 1544 1541 1539 1539 1539 1553 1545 1545 1552 1555 1547 1545 1543 1540 1537 1534 1531 1527 1523 1518 1514 1509 1504 1499 1496 1492 1488 1483
1538 1538 1539 1539 1539 1539 1541 1554 1552 1553 1559 1554 1552 1551 1549 1545 1544 1542 1541 1543 1544 1551 1544 1549 1558 1547 1545 1543 1541 1538 1535 1532 1528 1524 1520 1516 1512 1508 1504 1500 1495 1492 1488 1485
1540 1541 1541 1544 1547 1553 1563 1574 1563 1562 1557 1556 1555 1553 1549 1547 1545 1543 1543 1550 1554 1546 1556 1559 1550 1542 1541 1540 1538 1535 1533 1529 1526 1521 1517 1513 1509 1506 1502 1497 1494 1491 1487 1484
1541 1543 1552 1556 1565 1563 1563 1564 1561 1559 1556 1555 1553 1552 1550 1548 1546 1546 1551 1550 1550 1565 1566 1556 1542 1540 1538 1536 1534 1531 1528 1525 1522 1518 1514 1510 1506 1502 1499 1496 1493 1489 1486 1483
1545 1548 1563 1560 1561 1561 1561 1560 1559 1558 1556 1554 1552 1552 1552 1548 1549 1549 1551 1556 1566 1557 1555 1544 1538 1537 1535 1532 1530 1527 1524 1521 1517 1514 1510 1507 1504 1500 1497 1494 1491 1488 1485 1482
1551 1554 1558 1559 1560 1560 1560 1559 1558 1556 1554 1553 1553 1552 1554 1555 1554 1555 1563 1565 1564 1549 1540 1537 1536 1534 1532 1529 1526 1523 1520 1517 1514 1510 1507 1503 1499 1496 1493 1491 1489 1486 1483 1480
1555 1558 1559 1559 1559 1559 1559 1558 1557 1555 1554 1553 1553 1557 1557 1554 1561 1558 1553 1553 1540 1537 1536 1535 1533 1530 1528 1525 1522 1519 1516 1513 1510 1506 1503 1499 1496 1492 1489 1486 1485 1482 1480 1478
Wind_Speed
28 27 26 29 30 30 24 13 4 32 20 16 5 3 4 8 12 9 6 5 5 4 5 5 5 3 1 12 7 4 4 2 4 3 11 13 13 7 7 3 2 2 1 3
28 28 24 29 28 28 23 12 7 19 25 6 5 7 6 6 9 5 6 4 5 5 5 4 4 3 2 15 7 3 4 2 3 1 4 5 6 7 5 4 1 5 1 2
27 25 25 28 27 25 17 7 4 9 16 15 3 5 7 11 11 4 9 3 5 5 4 2 5 6 3 13 5 8 4 2 2 2 1 2 3 8 6 3 2 5 4 7
23 22 25 28 26 25 16 9 3 6 4 9 6 6 7 9 10 7 11 5 10 6 3 4 2 3 8 8 10 5 3 2 2 3 4 3 6 12 10 2 4 4 5 14
26 26 25 27 25 23 17 6 6 7 7 10 6 7 4 11 12 3 5 7 11 6 2 1 5 4 1 3 6 4 4 0 1 3 3 5 9 17 15 10 7 5 11 10
24 22 23 24 23 22 10 8 9 5 7 7 3 5 8 10 11 6 6 4 5 6 5 15 17 10 6 6 4 4 4 2 3 3 1 6 5 16 12 12 12 9 7 10
22 22 23 20 21 19 15 8 6 4 3 4 5 6 12 13 12 6 10 9 7 7 22 8 21 27 26 25 17 18 3 0 2 3 1 3 5 13 8 13 8 9 15 14
19 21 20 19 18 18 14 12 6 3 2 10 6 13 11 14 15 9 7 16 20 19 6 3 3 3 2 8 16 18 12 3 1 1 4 4 12 14 12 11 10 5 19 21
17 19 18 17 17 15 14 12 7 5 2 9 11 6 13 5 6 6 6 23 12 13 2 3 3 4 5 6 7 11 12 6 4 3 3 3 8 15 26 6 8 26 32 26
15 17 16 16 14 15 14 9 5 4 7 11 14 6 7 11 9 2 8 18 11 15 3 4 4 3 3 4 6 7 7 4 8 6 3 6 18 22 20 3 9 40 35 36
15 15 14 13 12 17 15 11 10 19 12 14 18 17 16 18 8 3 12 7 6 6 5 3 3 3 3 3 3 5 7 3 4 5 5 4 29 10 9 14 26 32 33 36
13 12 11 12 7 16 17 11 12 20 21 13 15 20 20 15 13 10 4 1 3 3 2 3 3 4 3 1 3 6 5 5 2 4 3 11 23 15 21 27 29 28 34 38
12 8 11 10 5 8 20 10 13 7 6 18 30 34 29 25 13 6 3 3 5 3 6 5 2 6 3 3 4 4 8 19 3 5 4 23 16 25 32 34 32 34 33 35
11 5 8 9 9 5 8 18 2 2 5 5 12 27 32 24 18 12 10 12 15 23 22 12 3 3 6 2 3 4 6 8 8 4 6 22 5 30 33 35 35 38 37 36
9 4 7 8 9 6 6 13 13 6 4 4 7 18 26 27 22 25 24 24 29 28 17 7 2 5 5 2 3 4 11 4 4 3 17 13 21 30 30 33 36 36 37 39
7 3 5 7 9 7 4 4 10 5 5 2 2 10 20 20 25 27 28 24 23 15 7 5 5 6 4 3 2 12 18 14 9 8 22 15 20 24 27 30 31 30 35 36
5 4 5 8 12 13 14 7 8 6 3 2 3 4 12 12 13 17 18 21 20 13 8 7 5 8 8 3 2 14 18 15 9 16 17 11 21 24 26 26 27 27 29 32
4 4 5 5 6 8 10 15 18 5 5 7 4 5 4 17 9 7 10 7 10 10 5 4 4 6 5 3 9 14 16 16 16 21 15 16 20 23 27 26 28 29 30 31
6 5 3 2 3 3 5 6 7 16 12 5 5 2 3 13 8 6 3 3 3 4 4 3 3 2 3 4 11 13 14 13 19 23 20 23 23 25 26 26 28 28 28 27
5 3 2 3 3 3 3 2 2 7 8 6 4 8 2 9 7 6 6 4 1 2 2 2 3 2 3 6 7 10 13 15 19 24 29 29 27 26 26 24 22 22 23 23
1 2 3 3 4 3 3 5 8 8 5 8 7 7 5 5 2 3 5 1 2 3 3 3 1 1 2 7 10 12 13 16 17 18 18 18 17 20 22 22 20 21 20 20
5 6 6 4 5 4 7 2 4 6 0 7 7 9 7 5 4 3 6 2 3 1 6 3 1 3 3 8 12 15 15 16 20 21 21 20 16 18 17 17 19 18 19 17
3 2 3 6 7 10 5 4 4 3 5 6 14 8 5 4 2 1 4 4 2 3 4 2 4 3 9 11 15 19 17 16 20 21 21 20 18 17 16 17 16 16 18 16
3 5 6 3 4 0 3 4 4 4 5 13 16 6 3 3 4 2 3 2 2 3 3 4 3 9 13 15 18 20 20 19 22 21 21 22 20 19 16 14 14 16 17 16
5 4 2 2 2 1 2 5 7 6 9 11 5 4 3 3 3 2 2 5 2 4 4 3 6 12 15 17 18 19 19 21 23 23 22 21 20 19 17 15 14 14 13 14
4 5 4 4 2 2 2 4 5 7 9 4 2 1 3 2 1 3 3 4 4 4 5 8 12 15 16 17 18 18 20 21 22 22 23 23 22 21 19 16 13 14 14 14
3 3 5 4 1 2 3 5 5 9 5 1 0 3 5 0 3 3 3 4 3 5 9 11 13 15 16 17 19 20 21 23 23 23 23 23 22 20 18 18 15 15 14 14
Wind_Direction
358 359 9 4 4 4 7 358 29 10 17 46 22 29 343 358 347 4 13 4 10 357 345 1 40 83 258 350 341 6 356 20 20 340 91 80 72 45 29 339 42 21 138 136
1 2 7 2 5 3 357 350 337 24 37 34 6 332 1 4 4 15 9 332 37 2 351 351 27 8 257 17 357 335 330 115 9 267 180 62 44 27 51 308 335 49 17 178
3 2 5 0 5 9 5 8 10 0 34 28 6 354 358 1 0 345 353 350 27 350 339 334 315 314 328 348 309 342 42 54 132 229 335 355 41 31 22 93 14 353 279 307
360 359 358 359 5 9 24 25 49 2 338 2 356 20 355 353 355 343 360 357 351 332 294 310 281 3 327 342 6 26 64 133 77 265 282 2 5 29 1 330 207 230 291 300
2 4 359 359 7 8 28 38 3 349 337 345 10 357 338 356 350 287 336 349 327 321 264 290 297 319 333 317 347 32 10 1 136 294 228 206 78 15 359 11 5 330 332 291
2 1 0 359 2 10 30 22 17 358 360 336 32 12 338 342 350 310 322 319 311 317 4 318 302 307 15 33 6 350 5 32 41 305 302 124 44 7 347 335 326 317 331 10
4 0 2 5 4 10 19 29 26 7 350 359 2 352 358 336 334 305 296 340 355 300 320 16 79 85 76 60 45 35 355 223 225 243 342 37 138 19 341 330 289 24 9 345
9 3 10 18 11 12 14 39 38 40 34 354 358 357 342 328 335 331 308 344 326 326 327 88 146 149 166 75 46 27 20 327 87 291 64 133 20 351 336 343 297 23 351 331
10 6 13 22 13 20 19 44 47 41 94 3 345 325 345 336 330 325 305 344 357 1 25 60 49 35 352 10 360 15 12 42 85 20 77 100 357 333 322 290 277 352 340 328
11 9 16 23 26 23 13 31 47 72 96 28 21 12 332 323 313 269 306 341 342 11 23 54 29 55 27 22 16 336 352 359 31 16 50 102 10 343 338 39 319 324 325 317
9 13 23 28 38 26 13 48 93 100 91 53 33 19 349 334 323 297 315 348 356 348 40 67 39 55 48 84 0 347 15 22 6 3 28 1 1 351 17 311 315 316 317 315
7 20 27 28 45 33 27 67 110 89 79 54 30 17 5 331 300 278 312 332 295 317 49 51 69 50 49 77 27 353 41 359 327 27 33 353 340 339 337 335 323 325 323 324
11 22 25 22 31 34 31 96 132 40 84 44 30 22 18 23 31 88 347 25 9 42 83 98 113 74 27 54 15 347 354 12 24 345 9 341 329 347 347 346 336 335 342 339
8 29 25 17 18 25 21 38 98 244 76 62 28 37 35 34 48 54 69 77 88 87 85 67 80 97 47 37 141 59 348 336 318 288 343 334 330 344 343 345 355 358 360 358
10 45 30 20 10 25 22 38 44 64 66 127 42 38 43 48 54 63 77 93 88 83 78 70 75 88 92 51 74 36 357 344 4 301 327 317 300 331 346 354 357 2 2 6
14 64 48 36 31 37 39 21 24 85 122 102 45 41 36 48 52 62 68 72 72 73 64 64 56 50 98 74 55 4 2 358 357 316 330 322 327 339 358 1 7 5 13 19
34 103 77 59 63 68 69 47 15 42 72 82 68 9 11 22 39 52 51 59 58 56 53 42 42 29 70 70 52 340 352 351 349 1 351 329 347 338 3 8 9 14 22 23
84 115 104 69 66 65 57 49 37 42 57 60 69 319 8 10 355 8 17 35 39 34 62 45 32 26 44 63 336 349 358 354 354 358 2 346 347 358 4 9 10 14 18 20
106 112 122 74 44 50 46 38 39 49 58 81 57 18 299 350 359 336 330 38 50 45 55 36 78 342 42 285 325 346 356 354 339 350 353 354 356 357 360 4 7 8 8 15
111 90 67 60 26 23 26 42 32 37 42 56 56 352 293 339 334 350 2 31 91 64 284 63 74 234 250 345 340 339 351 353 354 351 352 351 350 351 351 355 359 4 4 7
92 77 66 61 30 34 52 53 41 8 39 11 359 353 328 354 343 306 11 222 17 65 273 110 353 302 294 347 351 350 343 349 352 350 344 343 335 337 339 345 351 356 1 4
93 101 94 44 27 42 69 0 10 51 269 351 344 331 313 314 321 307 354 103 28 249 337 71 334 250 330 339 344 348 342 339 344 346 345 345 340 339 337 339 343 347 352 354
69 59 57 16 10 40 66 337 324 360 0 358 339 322 319 310 294 328 32 59 243 310 40 222 227 305 332 334 336 336 339 333 339 341 343 342 339 340 340 336 339 339 343 347
57 41 27 72 347 124 178 192 225 304 291 323 325 303 305 320 343 358 66 242 52 40 29 244 249 325 330 331 332 333 336 335 337 337 337 340 338 338 339 336 335 335 338 341
67 44 57 80 106 159 253 302 299 309 301 318 308 285 311 327 35 46 47 18 333 201 232 236 315 322 326 328 330 331 331 332 333 334 333 335 335 333 330 332 330 331 330 330
62 70 81 137 157 269 276 307 317 335 330 326 315 354 36 328 114 43 208 114 228 252 226 297 314 318 322 322 325 327 328 328 329 330 331 331 332 328 324 324 323 325 325 326
70 92 113 158 181 257 307 319 335 339 338 317 40 52 226 322 26 310 188 206 221 274 293 305 309 312 317 319 321 325 327 327 327 328 329 328 328 323 318 316 318 322 323 319